Location: Newark
(47.7394°N, 8.0008°E)
Time: 06:53:19
(UTC+00:00)

N. Korean satellite - Pass Details

Date: 19 December 2019
Orbit: 454 x 508 km, 97.2° (Epoch: 20 January)

Event Time Altitude Azimuth Distance (km) Brightness Sun altitude
Rises 16:28:51 0° 170° (S) 2,587 10.5 -8.3°
Reaches altitude 10° 16:30:56 10° 172° (S) 1,702 9.6 -8.6°
Maximum altitude 16:34:36 75° 258° (WSW) 518 6.8 -9.2°
Drops below altitude 10° 16:38:14 10° 344° (NNW) 1,690 9.2 -9.7°
Sets 16:40:18 0° 346° (NNW) 2,567 10.1 -10.0°
